Regional Weather Roundup
Issued by NWS Charleston, SC

Current Version | Previous Version | Text Only | Print | Product List | Glossary Off
Versions: 1 2 3 4 5 6 7 8 9 10 11 12 13 14 15 16 17 18 19 20 21 22 23 24 25 26 27 28 29 30 31 32 33 34 35 36 37 38 39 40 41 42 43 44 45 46 47 48 49 50

000
ASUS42 KCHS 252012
RWRCHS

REGIONAL WEATHER ROUNDUP
NATIONAL WEATHER SERVICE CHARLESTON SC
400 PM EDT MON MAY 25 2015

NOTE: "FAIR" INDICATES FEW OR NO CLOUDS BELOW 12,000 FEET WITH NO
SIGNIFICANT WEATHER AND/OR OBSTRUCTIONS TO VISIBILITY.

NOT ALL STATIONS ARE QUALITY CONTROLLED BY THE NATIONAL
WEATHER SERVICE. USE DATA WITH CAUTION...ESPECIALLY
DEWPOINT OBSERVATIONS.

SCZ027-030-031-034>040-042>050-252100-
...SOUTHEAST SOUTH CAROLINA...

CITY           SKY/WX    TMP DP  RH WIND       PRES   REMARKS
N CHARLESTON   PTSUNNY   79  66  64 SE9       30.28F
WATERFRONT PAR   N/A     77  68  73 E12       30.25F
MOUNT PLEASANT LGT RAIN  79  66  65 SE9       30.28F
JOHNS ISLAND   MOCLDY    79  70  73 E13       30.28F
PINOPOLIS        N/A     86  66  51 E7        30.20S
MONCKS CORNER  MOCLDY    82  64  54 SE8       30.27F
SUMMERVILLE    CLOUDY    81  68  65 E3        30.28S
BEAUFORT MCAS  MOSUNNY   82  69  64 E13       30.26F
BEAUFORT ARPT  CLOUDY    81  70  69 E10       30.26F
HILTON HEAD IS MOSUNNY   79  70  73 NE10      30.27F
WALTERBORO     MOCLDY    81  64  57 SE6       30.27S
ALLENDALE      MOCLDY    82  68  61 SE8       30.24S

...SOUTHERN MIDLANDS AND PEE DEE...

CITY           SKY/WX    TMP DP  RH WIND       PRES   REMARKS
GEORGETOWN     NOT AVBL
KINGSTREE      NOT AVBL
ORANGEBURG     PTSUNNY   81  62  52 VRB3      30.26F
BARNWELL       FAIR      84  66  54 SE3       30.25S
AIKEN          MOCLDY    84  57  39 E6        30.27F
MANNING        CLOUDY    81  12   7 SE5       30.27F
COLUMBIA       PTSUNNY   83  62  49 SE12G18   30.24F
SUMTER         PTSUNNY   82  62  50 S8        30.25F
FLORENCE       CLOUDY    83  61  47 S12       30.26F
MYRTLE BEACH   MOSUNNY   81  63  54 S12G17    30.31F
N MYRTLE BEACH SUNNY     77  63  61 S9        30.30F

$$

GAZ063-065-086>088-099>101-113>116-118-119-134>141-150-252100-
...SOUTHEAST GEORGIA...

CITY           SKY/WX    TMP DP  RH WIND       PRES   REMARKS
SAVANNAH ARPT  PTSUNNY   82  67  60 E14       30.24F
HUNTER AAF     MOSUNNY   83  69  61 SE14      30.22F
FORT STEWART   CLOUDY    79  72  78 E10       30.21
STATESBORO     RAIN      76  76 100 CALM      30.24F
SYLVANIA       DRIZZLE   81  71  72 SE7       30.24F
CLAXTON        FAIR      82  72  69 SE13      30.22F

...CSRA...CENTRAL AND FAR SOUTHEAST GEORGIA...

CITY           SKY/WX    TMP DP  RH WIND       PRES   REMARKS
THOMSON        MOSUNNY   87  69  55 E7        30.26F HX  90
AUGUSTA-BUSH   MOSUNNY   85  65  51 S9        30.21F
AUGUSTA-DANIEL MOSUNNY   86  64  47 SE10      30.23F
SWAINSBORO     MOCLDY    86  70  58 SE15      30.21S HX  90
VIDALIA          N/A     82  70  65 E12G17    30.20F
EASTMAN        MOCLDY    86  71  61 CALM      30.20F HX  92
HAZLEHURST     FAIR      79  75  87 CALM      30.18F
ALMA           PTSUNNY   81  75  82 VRB7      30.20F
WAYCROSS       PTSUNNY   83  75  78 SE13      30.20S HX  90
JESUP          FAIR      84  73  70 SE7       30.22S HX  91
BAXLEY         FAIR      82  72  69 SE13      30.20S
BRUNSWICK      PTSUNNY   82  68  61 SE13      30.23F
SAINT SIMONS   NOT AVBL

$$

SCZ027-028-034-036>038-045-046-048>050-GAZ119-141-252100-
...LAKE AND SUPPLEMENTAL COASTAL OBSERVATIONS...

STATION/POSITION TIME  TEMP    WIND        PRES    WAVE   SWELL
                       AIR SEA DIR/SP/G            HT/PER HT/PER/DIR
                 (UTC) (F)     (DEG/KT/KT) (MB)    (FT/S) (FT/S/D)
UPR LAKE MARION  NOT AVBL
WINYAH BAY       NOT AVBL
LAKE MURRAY      1900   80     120/  5/  7 1024.0F
ACE BASIN NERRS  1845   82     120/  4     1025.0
FORT PULASKI     1900   77 77   80/ 12/ 13 1025.3F
SAPELO ISLAND    1900   84     110/ 11     1024.0F

$$

ANZ835-935-AMZ111-154-330-350-352-354-370-450-454-472-252100-
...C-MAN AND BUOY OBSERVATIONS...

STATION/POSITION TIME  TEMP    WIND        PRES    WAVE   SWELL
                       AIR SEA DIR/SP/G            HT/PER HT/PER/DIR
                 (UTC) (F)     (DEG/KT/KT) (MB)    (FT/S) (FT/S/D)
BUOY 41004       1950   76 76  100/ 10/ 14 1024.9F   4/ 7   3/ 7
BUOY 41008       1950   76 76  100/  8/ 10 1024.1F   4/ 8   3/ 90/ 8
FOLLY BEACH CMAN 2000   76      80/ 11/ 13 1025.7F
CAPERS NEARSHORE 1908   76      90/ 10/ 12 1025.9F
FRIPP NEARSHORE  1900   78      90/ 10/ 12 1024.3


STATION/POSITION TIME  TEMP    WIND        PRES    WAVE   SWELL
                       AIR SEA DIR/SP/G            HT/PER HT/PER/DIR
                 (UTC) (F)     (DEG/KT/KT) (MB)    (FT/S) (FT/S/D)
5E ST. MARYS GA  1921      79                N/A     4/ 7
FRYING PAN BUOY  1950   76 75  120/  8/ 12 1026.9F   3/ 6   2/110/ 6
BUOY 41025       1950   74 78  160/ 12/ 14 1027.1F   2/ 8   2/ 60/ 8
CAPE LOOKOUT NC  2000   74     150/  9/ 11 1026.5F
BUOY 41002       1950   74 75  120/ 12/ 14 1026.4F   3/ 6   2/ 80/ 6
BUOY 41010       1920   79 82  100/ 14/ 16 1023.3F
ST AUGUSTINE FL  2000   78 79  100/ 12/ 13 1023.5F


$$


USA.gov is the U.S. government's official web portal to all federal, state and local government web resources and services.